Weather in Kuliga

Russia / Kursk Oblast     51°15′57″N   36°17′55″E
temp.,
°C
wind,
m/s
gust,
m/s
humid.,
%
clouds,
%
prec.,
mm/h
press.,
hPa
HPBL,
m
17 august, wed
wed1700:00+25e51436100 0.0 1013494
03:00+26e61434100 0.0 1012498
06:00+23e71537100 0.1 1012524
09:00+22e61548100 0.1 1012574
12:00+24ene81346100 0.0 1011416
15:00+29ene91133100 0.0 10111678
18:00+29ne8133121 0.0 10091140
21:00+25ene9173883 0.0 1010643
18 august, thu
thu1800:00+23ene7154119 0.0 1010574
03:00+20ne512464 0.0 1010368
06:00+19ne6135299 0.0 1010348
09:00+23ene71044100 0.0 1010681
12:00+27ene683895 0.3 10101075
15:00+29ene673352 0.6 10091393
18:00+29ene68388 0.1 10091537
21:00+20ene514726 0.4 1011295
19 august, fri
fri1900:00+19ne5137567 0.1 1012388
03:00+19ene7147296 0.1 1012508
06:00+18ene613734 0.0 1012640
09:00+22ene810595 0.0 1013955
12:00+27ene78449 0.0 10131612
15:00+27ene9947100 0.1 10131973
18:00+23ene71154100 0.3 10141011
21:00+18ene713805 0.3 1015571
20 august, sat
sat2000:00+16ene510874 0.0 1016336
03:00+16ene3687100 0.0 1015130
06:00+17ese41174100 0.1 1016287
09:00+20ese81468100 1.8 1017648
12:00+26ese81138100 0.2 10171495
15:00+23ese71139100 0.2 10181016
18:00+23ese71432100 0.0 1017961
21:00+24e71428100 0.0 10181051
21 august, sun
sun2100:00+24ese81522100 0.0 1017934
03:00+23ese71621100 0.0 1017676
06:00+21ese61423100 0.0 1018495
09:00+22ese7112598 0.0 1018629
12:00+25ese8102398 0.0 1018973
15:00+26e71122100 0.0 10171378
18:00+25e51024100 0.0 1016482
21:00+23e51525100 0.0 1016469